sat.trackr.live / text

‹ back to catalog

ZHUHAI-1 OVS-02

NORAD 43440 · 2018-040B

PAYLOAD ACTIVE UNKNOWN

§ Identity

Operator
Country
PRC
Launch date
2018-04-26
Launch site
JSC
Launch vehicle
Mass (kg)
RCS (m²)

External: N2YO · Heavens-Above · Gunter

§ Orbital elements

Epoch: 2026-09-20T04:58:26.998752Z

Period
94.36 min
Inclination
97.0389°
Eccentricity
0.0001574
Mean motion
15.26070667 rev/d
Perigee alt
486.5 km
Apogee alt
488.7 km
Semi-major
6,865.7 km
B*
1.4436e-4
RAAN
274.8663°
Arg perigee
290.1592°
Mean anomaly
69.9478°
Rev number
46,720

§ Raw data

ZHUHAI-1 OVS-021 43440U 18040B   26263.20725693  .00003652  00000+0  14436-3 0  99972 43440  97.0389 274.8663 0001574 290.1592  69.9478 15.26070667467206

JSON: /api/v1/satellites/43440 · /tle

For live sub-satellite position, see the globe view (requires WebGL).

§ Visibility from observer

Set your observer location to see the next 7 days of passes ≥ 10°. The values pass through the URL so the page stays shareable.

No JS? Fill the form by hand. The geolocation button needs JavaScript.

§ Radio — SatNOGS DB

ModeDescriptionDownlinkUplink
Downlink 401.440 MHz
BPSK Telemetry 2.207 GHz

2 transmitters · refreshed weekly from db.satnogs.org